Marion, IN

10:23 AM EDT on September 27, 2016 (GMT -0400)
Marion Municipal

Weather History for KMZZ - March, 2014

Change the Weather History Date:

Wednesday, March 19, 2014

  Actual Average (KMIE) Record (KMIE)
Temperature  
Mean Temperature 42 °F 41 °F  
Max Temperature 50 °F 50 °F 81 °F (2012)
Min Temperature 34 °F 31 °F 10 °F (1965)
Degree Days  
Heating Degree Days 23 24  
Month to date heating degree days 526  
Since 1 July heating degree days 4909  
Cooling Degree Days 0 0  
Month to date cooling degree days 0  
Year to date cooling degree days 0  
Moisture  
Dew Point 38 °F    
Average Humidity 84    
Maximum Humidity 97    
Minimum Humidity 76    
Precipitation  
Precipitation 0.03 in 0.09 in 1.44 in (1986)
Month to date precipitation 1.69  
Year to date precipitation 6.23  
Sea Level Pressure  
Sea Level Pressure 29.78 in    
Wind  
Wind Speed 14 mph (SW)    
Max Wind Speed 28 mph    
Max Gust Speed 36 mph    
Visibility 7 miles    
Events Rain    
T = Trace of Precipitation, MM = Missing Value Source: NWS Daily Summary

Daily Weather History Graph

Daily Weather History Graph

Search for Another Location

Airport or City:

Trip Planner

Search our weather history database for the weather conditions in past years. The results will help you decide how hot, cold, wet, or windy it might be!

Date:

Astronomy

Mar. 19, 2014 Rise Set
Actual Time 7:47 AM EDT 7:53 PM EDT
Civil Twilight 7:20 AM EDT 8:20 PM EDT
Nautical Twilight 6:48 AM EDT 8:52 PM EDT
Astronomical Twilight 6:16 AM EDT 9:25 PM EDT
Moon 11:12 PM EDT (3/19) 9:12 AM EDT (3/19)
Length of Visible Light 13h 00m
Length of Day
12h 06m
Waning Gibbous, 91% of the Moon is Illuminated
Mar 19
Waning Gibbous
Mar 23
Last Quarter
Mar 30
New
Apr 7
First Quarter
Apr 15
Full

Hourly Weather History & Observations

Time (EDT) Temp. Windchill Dew Point Humidity Pressure Visibility Wind Dir Wind Speed Gust Speed Precip Events Conditions
12:15 AM 42.8 °F 39.3 °F 36.0 °F 77% 29.81 in 10.0 mi SSE 5.8 mph - N/A   Overcast
12:35 AM 42.6 °F 39.0 °F 36.0 °F 77% 29.79 in 10.0 mi SE 5.8 mph - N/A   Overcast
12:55 AM 42.1 °F 38.4 °F 35.8 °F 78% 29.79 in 10.0 mi SSE 5.8 mph - N/A   Overcast
1:15 AM 42.8 °F 38.6 °F 36.3 °F 78% 29.79 in 10.0 mi SSE 6.9 mph - N/A   Overcast
1:35 AM 42.4 °F 38.8 °F 36.3 °F 79% 29.78 in 10.0 mi South 5.8 mph - N/A   Overcast
1:55 AM 42.1 °F 37.7 °F 36.5 °F 81% 29.78 in 10.0 mi South 6.9 mph - N/A   Overcast
2:15 AM 43.0 °F 37.7 °F 37.8 °F 82% 29.77 in 10.0 mi South 9.2 mph - N/A   Overcast
2:35 AM 43.9 °F 38.3 °F 38.3 °F 81% 29.76 in 7.0 mi South 10.4 mph - N/A   Overcast
2:55 AM 43.9 °F 37.9 °F 38.3 °F 81% 29.76 in 10.0 mi South 11.5 mph - N/A   Overcast
3:15 AM 43.9 °F 38.3 °F 38.5 °F 81% 29.75 in 10.0 mi SSW 10.4 mph - N/A   Overcast
3:35 AM 44.2 °F 38.8 °F 39.0 °F 82% 29.74 in 10.0 mi South 10.4 mph - N/A   Overcast
3:55 AM 44.6 °F 39.2 °F 39.2 °F 81% 29.74 in 10.0 mi South 10.4 mph - N/A   Overcast
4:15 AM 44.1 °F 38.6 °F 38.8 °F 82% 29.73 in 10.0 mi South 10.4 mph - N/A   Mostly Cloudy
4:35 AM 43.2 °F 37.4 °F 38.5 °F 84% 29.72 in 7.0 mi South 10.4 mph - N/A   Scattered Clouds
4:55 AM 43.7 °F 37.3 °F 39.0 °F 84% 29.72 in 10.0 mi South 12.7 mph - N/A   Mostly Cloudy
5:15 AM 44.2 °F 38.0 °F 39.2 °F 82% 29.72 in 10.0 mi South 12.7 mph - N/A   Overcast
5:35 AM 44.6 °F 37.2 °F 39.4 °F 82% 29.72 in 7.0 mi South 17.3 mph - N/A   Overcast
5:55 AM 44.4 °F 37.9 °F 39.7 °F 84% 29.72 in 5.0 mi South 13.8 mph 19.6 mph 0.02 in Rain Light Rain
6:15 AM 44.1 °F 37.4 °F 40.1 °F 86% 29.70 in 7.0 mi South 13.8 mph - N/A   Overcast
6:35 AM 44.1 °F 37.1 °F 40.1 °F 86% 29.71 in 10.0 mi South 15.0 mph 21.9 mph N/A   Overcast
6:55 AM 44.2 °F 36.4 °F 39.7 °F 84% 29.71 in 10.0 mi South 18.4 mph - N/A   Overcast
7:15 AM 44.2 °F 36.4 °F 39.6 °F 84% 29.70 in 10.0 mi South 18.4 mph 24.2 mph N/A   Overcast
7:35 AM 44.1 °F 36.8 °F 39.4 °F 84% 29.70 in 7.0 mi South 16.1 mph - N/A   Overcast
7:55 AM 44.1 °F 36.8 °F 39.4 °F 84% 29.71 in 7.0 mi South 16.1 mph - N/A   Overcast
8:15 AM 44.1 °F 37.4 °F 39.4 °F 84% 29.71 in 7.0 mi South 13.8 mph - N/A   Overcast
8:35 AM 44.4 °F 36.6 °F 39.6 °F 83% 29.70 in 7.0 mi South 18.4 mph - N/A   Overcast
8:55 AM 44.8 °F 38.0 °F 39.9 °F 83% 29.70 in 7.0 mi SSW 15.0 mph 24.2 mph N/A   Overcast
9:15 AM 45.0 °F 37.6 °F 40.3 °F 84% 29.70 in 7.0 mi SSW 17.3 mph 21.9 mph N/A   Overcast
9:35 AM 45.0 °F 37.6 °F 40.3 °F 84% 29.70 in 7.0 mi SSW 17.3 mph 23.0 mph N/A   Overcast
9:55 AM 45.9 °F 38.5 °F 41.2 °F 84% 29.69 in 10.0 mi South 18.4 mph 21.9 mph N/A   Mostly Cloudy
10:15 AM 47.5 °F - 42.1 °F 82% 29.69 in 10.0 mi SSW 16.1 mph 21.9 mph N/A   Mostly Cloudy
10:35 AM 47.8 °F - 42.3 °F 81% 29.70 in 7.0 mi SSW 15.0 mph 20.7 mph N/A   Overcast
10:55 AM 47.7 °F - 42.4 °F 82% 29.70 in 4.0 mi SSW 12.7 mph 18.4 mph N/A Rain Light Rain
11:15 AM 47.7 °F - 43.3 °F 85% 29.70 in 7.0 mi SSW 13.8 mph - N/A   Overcast
11:35 AM 48.7 °F - 44.1 °F 84% 29.69 in 10.0 mi SSW 16.1 mph - N/A   Overcast
11:55 AM 49.6 °F - 44.4 °F 82% 29.69 in 10.0 mi SSW 16.1 mph - N/A   Overcast
12:15 PM 50.0 °F - 44.4 °F 81% 29.69 in 7.0 mi SW 17.3 mph - N/A   Overcast
12:35 PM 50.5 °F - 44.2 °F 79% 29.69 in 10.0 mi SW 19.6 mph 24.2 mph N/A   Overcast
12:55 PM 50.2 °F - 43.7 °F 78% 29.69 in 10.0 mi SW 19.6 mph 24.2 mph N/A   Overcast
1:15 PM 50.0 °F - 43.7 °F 79% 29.69 in 10.0 mi SW 18.4 mph 24.2 mph N/A   Overcast
1:35 PM 50.0 °F - 43.7 °F 79% 29.70 in 10.0 mi WSW 17.3 mph 23.0 mph N/A   Overcast
1:55 PM 50.0 °F - 43.0 °F 77% 29.70 in 7.0 mi WSW 17.3 mph 26.5 mph N/A   Overcast
2:15 PM 49.5 °F - 42.3 °F 76% 29.71 in 10.0 mi WSW 24.2 mph 34.5 mph N/A   Overcast
2:35 PM 48.0 °F - 41.9 °F 79% 29.71 in 10.0 mi WSW 25.3 mph 33.4 mph N/A   Overcast
2:55 PM 48.0 °F - 42.1 °F 80% 29.72 in 7.0 mi WSW 20.7 mph 32.2 mph N/A   Overcast
3:15 PM 47.5 °F - 42.1 °F 82% 29.72 in 7.0 mi WSW 19.6 mph - N/A   Overcast
3:35 PM 46.9 °F - 41.7 °F 82% 29.73 in 7.0 mi WSW 26.5 mph 34.5 mph N/A   Overcast
3:55 PM 45.1 °F 35.8 °F 41.4 °F 87% 29.75 in 1.5 mi West 27.6 mph 35.7 mph 0.01 in   Overcast
4:15 PM 43.3 °F 33.6 °F 41.9 °F 95% 29.76 in 1.2 mi West 26.5 mph 32.2 mph N/A   Overcast
4:35 PM 42.3 °F 32.2 °F 41.5 °F 97% 29.78 in 2.0 mi West 26.5 mph - N/A   Overcast
4:55 PM 41.0 °F 31.9 °F 40.3 °F 97% 29.79 in 1.8 mi West 19.6 mph 27.6 mph N/A   Overcast
5:15 PM 40.6 °F 30.4 °F 39.7 °F 97% 29.80 in 3.0 mi West 24.2 mph 31.1 mph N/A   Overcast
5:35 PM 39.9 °F 29.7 °F 38.8 °F 96% 29.82 in 2.5 mi West 23.0 mph 33.4 mph N/A   Overcast
5:55 PM 39.2 °F 28.5 °F 37.9 °F 95% 29.83 in 3.0 mi West 24.2 mph 32.2 mph N/A   Overcast
6:15 PM 39.0 °F 29.3 °F 37.4 °F 94% 29.84 in 5.0 mi West 19.6 mph 32.2 mph N/A   Overcast
6:35 PM 38.7 °F 27.3 °F 36.5 °F 92% 29.86 in 7.0 mi West 26.5 mph 33.4 mph N/A   Overcast
6:55 PM 38.5 °F 27.5 °F 35.1 °F 87% 29.88 in 7.0 mi West 24.2 mph 29.9 mph N/A   Overcast
7:15 PM 38.5 °F 27.3 °F 34.7 °F 86% 29.89 in 4.0 mi West 25.3 mph 34.5 mph N/A   Overcast
7:35 PM 38.5 °F 27.5 °F 34.3 °F 85% 29.90 in 4.0 mi West 24.2 mph 31.1 mph N/A   Overcast
7:55 PM 37.9 °F 26.6 °F 34.0 °F 86% 29.92 in 4.0 mi West 25.3 mph 33.4 mph N/A   Overcast
8:15 PM 37.2 °F 25.2 °F 33.6 °F 87% 29.92 in 5.0 mi West 27.6 mph 33.4 mph N/A   Overcast
8:35 PM 37.0 °F 25.4 °F 32.9 °F 85% 29.93 in 5.0 mi West 25.3 mph - N/A   Overcast
8:55 PM 36.5 °F 24.7 °F 32.2 °F 84% 29.94 in 7.0 mi West 25.3 mph 33.4 mph N/A   Overcast
9:15 PM 36.1 °F 24.4 °F 31.8 °F 84% 29.95 in 7.0 mi West 24.2 mph 35.7 mph N/A   Overcast
9:35 PM 35.6 °F 23.0 °F 31.5 °F 85% 29.96 in 7.0 mi West 27.6 mph 33.4 mph N/A   Overcast
9:55 PM 35.2 °F 23.2 °F 31.1 °F 85% 29.96 in 7.0 mi West 24.2 mph 33.4 mph N/A   Overcast
10:15 PM 34.7 °F 22.2 °F 30.7 °F 85% 29.97 in 5.0 mi West 25.3 mph 31.1 mph N/A   Overcast
10:35 PM 34.7 °F 22.8 °F 30.4 °F 84% 29.98 in 7.0 mi West 23.0 mph 29.9 mph N/A   Overcast
10:55 PM 34.7 °F 24.0 °F 30.2 °F 84% 29.99 in 7.0 mi West 18.4 mph - N/A   Overcast
11:15 PM 34.7 °F 23.7 °F 29.7 °F 82% 29.99 in 7.0 mi West 19.6 mph 23.0 mph N/A   Overcast
11:35 PM 34.7 °F 23.7 °F 29.1 °F 80% 29.99 in 7.0 mi West 19.6 mph 26.5 mph N/A   Overcast
11:55 PM 34.7 °F 23.7 °F 28.4 °F 78% 29.99 in 7.0 mi West 19.6 mph 29.9 mph N/A   Overcast